Coleman, TX

6:08 AM CST on February 11, 2016 (GMT -0600)
Coleman Municipal

Weather History for KCOM - February, 2014

Change the Weather History Date:

Thursday, February 6, 2014

  Actual Average (KABI) Record (KABI)
Temperature  
Mean Temperature 19 °F 47 °F  
Max Temperature 20 °F 59 °F 84 °F (1904)
Min Temperature 18 °F 35 °F 9 °F (1989)
Degree Days  
Heating Degree Days 46 18  
Month to date heating degree days 112  
Since 1 July heating degree days 1781  
Cooling Degree Days 0 0  
Month to date cooling degree days 0  
Year to date cooling degree days 1  
Moisture  
Dew Point 12 °F    
Average Humidity 73    
Maximum Humidity 76    
Minimum Humidity 69    
Precipitation  
Precipitation 0.00 in 0.04 in 1.10 in (1935)
Month to date precipitation 0.25  
Year to date precipitation 1.27  
Sea Level Pressure  
Sea Level Pressure 30.37 in    
Wind  
Wind Speed 8 mph (NNE)    
Max Wind Speed 12 mph    
Max Gust Speed -    
Visibility 10 miles    
Events      
T = Trace of Precipitation, MM = Missing Value Source: NWS Daily Summary

Daily Weather History Graph

Daily Weather History Graph

Search for Another Location

Airport or City:

Trip Planner

Search our weather history database for the weather conditions in past years. The results will help you decide how hot, cold, wet, or windy it might be!

Date:

Astronomy

Feb. 06, 2014 Rise Set
Actual Time 7:27 AM CST 6:16 PM CST
Civil Twilight 7:01 AM CST 6:41 PM CST
Nautical Twilight 6:33 AM CST 7:10 PM CST
Astronomical Twilight 6:04 AM CST 7:39 PM CST
Moon 11:50 AM CST (2/6) 12:44 AM CST (2/6)
Length of Visible Light 11h 39m
Length of Day
10h 49m
Waxing Crescent, 49% of the Moon is Illuminated
Feb 6
Waxing Crescent
Feb 6
First Quarter
Feb 14
Full
Feb 22
Last Quarter
Mar 1
New

Hourly Weather History & Observations

Time (CST) Temp. Windchill Dew Point Humidity Pressure Visibility Wind Dir Wind Speed Gust Speed Precip Events Conditions
12:15 PM - - - N/A% - - North - - N/A   Unknown
12:35 PM 18.5 °F 10.4 °F 10.8 °F 72% 30.46 in 10.0 mi North 5.8 mph - N/A   Overcast
12:55 PM 19.2 °F 8.4 °F 11.1 °F 71% 30.45 in 10.0 mi North 9.2 mph - N/A   Overcast
1:15 PM 19.4 °F 7.2 °F 11.3 °F 71% 30.44 in 10.0 mi North 11.5 mph - N/A   Overcast
1:35 PM 19.0 °F 7.5 °F 10.6 °F 70% 30.42 in 10.0 mi North 10.4 mph - N/A   Overcast
1:55 PM 19.4 °F 8.6 °F 10.8 °F 69% 30.41 in 10.0 mi North 9.2 mph - N/A   Overcast
2:15 PM 19.4 °F 7.2 °F 10.6 °F 69% 30.40 in 10.0 mi NNE 11.5 mph - N/A   Overcast
2:35 PM 19.8 °F 9.9 °F 11.1 °F 69% 30.39 in 10.0 mi North 8.1 mph - N/A   Overcast
2:55 PM 19.9 °F 9.3 °F 11.3 °F 69% 30.39 in 10.0 mi North 9.2 mph - N/A   Overcast
3:15 PM 19.9 °F 10.1 °F 11.8 °F 71% 30.38 in 10.0 mi North 8.1 mph - N/A   Overcast
3:35 PM 20.1 °F 10.3 °F 11.3 °F 69% 30.37 in 10.0 mi NNE 8.1 mph - N/A   Overcast
3:55 PM 20.3 °F 11.5 °F 11.7 °F 69% 30.37 in 10.0 mi NNE 6.9 mph - N/A   Overcast
4:15 PM 20.3 °F 10.6 °F 12.0 °F 70% 30.37 in 10.0 mi North 8.1 mph - N/A   Overcast
4:35 PM 20.5 °F 10.8 °F 12.2 °F 70% 30.36 in 10.0 mi NNE 8.1 mph - N/A   Overcast
4:55 PM 20.3 °F 10.6 °F 12.6 °F 72% 30.34 in 10.0 mi NNE 8.1 mph - N/A   Overcast
5:15 PM 20.3 °F 12.5 °F 12.4 °F 71% 30.35 in 10.0 mi NNE 5.8 mph - N/A   Overcast
5:35 PM 20.3 °F 10.6 °F 12.7 °F 73% 30.35 in 10.0 mi NE 8.1 mph - N/A   Overcast
5:55 PM 20.1 °F 11.3 °F 12.0 °F 71% 30.37 in 10.0 mi NE 6.9 mph - N/A   Overcast
6:15 PM 19.9 °F 11.1 °F 12.0 °F 71% 30.34 in 10.0 mi NE 6.9 mph - N/A   Overcast
6:35 PM 19.8 °F 9.9 °F 12.4 °F 73% 30.35 in 10.0 mi ENE 8.1 mph - N/A   Overcast
6:55 PM 19.4 °F 9.5 °F 12.2 °F 74% 30.36 in 10.0 mi ENE 8.1 mph - N/A   Overcast
7:15 PM 19.4 °F 10.4 °F 12.2 °F 74% 30.35 in 10.0 mi ENE 6.9 mph - N/A   Overcast
7:35 PM 19.4 °F 10.4 °F 12.2 °F 74% 30.36 in 10.0 mi NE 6.9 mph - N/A   Overcast
7:55 PM 19.2 °F 10.2 °F 12.4 °F 75% 30.37 in 10.0 mi NNE 6.9 mph - N/A   Overcast
8:15 PM 19.2 °F 9.3 °F 12.4 °F 75% 30.36 in 10.0 mi NNE 8.1 mph - N/A   Overcast
8:35 PM 19.0 °F 10.0 °F 12.2 °F 75% 30.37 in 10.0 mi NNE 6.9 mph - N/A   Overcast
8:55 PM 19.0 °F 9.0 °F 12.2 °F 75% 30.37 in 10.0 mi NNE 8.1 mph - N/A   Overcast
9:15 PM 18.9 °F 9.8 °F 12.2 °F 75% 30.36 in 10.0 mi NNE 6.9 mph - N/A   Overcast
9:35 PM 18.5 °F 10.4 °F 11.8 °F 75% 30.37 in 10.0 mi NE 5.8 mph - N/A   Overcast
9:55 PM 18.5 °F 10.4 °F 11.8 °F 75% 30.36 in 10.0 mi NNE 5.8 mph - N/A   Overcast
10:15 PM 18.5 °F 11.7 °F 11.7 °F 75% 30.36 in 10.0 mi NNE 4.6 mph - N/A   Overcast
10:35 PM 18.5 °F 11.7 °F 12.0 °F 76% 30.34 in 10.0 mi NE 4.6 mph - N/A   Overcast
10:55 PM 18.5 °F 11.7 °F 12.0 °F 76% 30.34 in 10.0 mi ENE 4.6 mph - N/A   Overcast
11:15 PM 18.9 °F 10.8 °F 12.2 °F 75% 30.33 in 10.0 mi ENE 5.8 mph - N/A   Overcast
11:35 PM 18.7 °F 10.6 °F 12.4 °F 76% 30.33 in 10.0 mi NE 5.8 mph - N/A   Overcast
11:55 PM 18.7 °F 9.5 °F 12.4 °F 76% 30.31 in 10.0 mi ENE 6.9 mph - N/A   Overcast